Location: Unspecified
(42.9386°N, 0.0000°E)
Time: 22:32:52
(UTC+00:00)

OTV 5 (USA 277) - Pass Details

Date: 19 June 2019
Orbit: 310 x 324 km, 54.5° (Epoch: 17 October)

Event Time Altitude Azimuth Distance (km) Brightness Sun altitude
Rises 02:07:31 0° 314° (NW) 2,081 ? -17.6°
Enters shadow 03:13:20 -62° 284° (WNW) 11,582 ? -10.3°
Maximum altitude 03:46:26 21° 27° (NNE) 790 ? -5.9°
